Stations météo

réclame
Mon MeteoGroup
Altnaharra, Grande-Bretagne (3044): Température de l'air & dewpoint: 13.01.2018 23:00:00 - 19.01.2018 23:00:00 (GMT)Altnaharra, Grande-Bretagne (3044): Température de l'air -20cm & Température de l'air -100cm: 13.01.2018 23:00:00 - 19.01.2018 23:00:00 (GMT)Altnaharra, Grande-Bretagne (3044): Vitesse du vent & gusts: 13.01.2018 23:00:00 - 19.01.2018 23:00:00 (GMT)Altnaharra, Grande-Bretagne (3044): Direction du vent: 13.01.2018 23:00:00 - 19.01.2018 23:00:00 (GMT)Altnaharra, Grande-Bretagne (3044): reduced air pressure: 13.01.2018 23:00:00 - 19.01.2018 23:00:00 (GMT)Altnaharra, Grande-Bretagne (3044): visibility: 13.01.2018 23:00:00 - 19.01.2018 23:00:00 (GMT)Altnaharra, Grande-Bretagne (3044): Ensoleillement: 13.01.2018 23:00:00 - 19.01.2018 23:00:00 (GMT)Altnaharra, Grande-Bretagne (3044): Quantités de précipitations: 13.01.2018 23:00:00 - 19.01.2018 23:00:00 (GMT)
Date & Time tt [°C] td [°C] tt -20cm [°C] tt -100cm [°C] ff [km/h] ff [knt] fx [km/h] fx [knt] dd ppp [hPa] vv [km] sd [min] rr [mm]
19.01.2018 23:00:00 - - - - - - - - - - - - -
19.01.2018 22:00:00 -2,0 -3,8 - - 8 4 - - WNW 995,5 50 0 0,0
19.01.2018 21:00:00 -1,9 -3,6 - - 8 4 - - E 995,4 50 0 0,0
19.01.2018 20:00:00 -1,2 -1,9 - - 8 4 - - WSW 995,3 50 0 0,0
19.01.2018 19:00:00 -0,3 -0,6 - - 13 7 - - SW 995,0 50 0 0,0
19.01.2018 18:00:00 -1,0 -1,4 - - 11 6 - - SW 994,8 1,9 0 0,0
19.01.2018 17:00:00 -0,5 -0,8 - - 13 7 - - S 994,6 50 0 0,0
19.01.2018 16:00:00 -0,3 -0,7 - - 16 9 - - S 994,6 6 0 0,0
19.01.2018 15:00:00 -0,6 -1,1 - - 21 11 - - S 994,3 50 0 0,0
19.01.2018 14:00:00 0,1 -0,3 - - 9 5 - - SSE 994,4 50 0 0,0
19.01.2018 13:00:00 0,0 -0,2 - - 13 7 - - S 994,3 2,5 0 0,0
19.01.2018 12:00:00 0,1 -0,2 - - 5 3 - - S 994,5 6 0 0,0
19.01.2018 11:00:00 0,3 -0,1 - - 13 7 - - S 994,6 3,5 0 0,0
19.01.2018 10:00:00 0,3 -0,5 - - 18 10 - - S 994,5 1,5 0 0,0
19.01.2018 09:00:00 -0,6 -2,2 - - 8 4 - - S 994,2 50 0 0,0
19.01.2018 08:00:00 -0,1 -1,2 - - 21 11 - - S 993,9 18 0 0,0
19.01.2018 07:00:00 0,3 -1,2 - - 16 9 - - S 993,9 50 0 0,0
19.01.2018 06:00:00 0,0 -0,7 - - 18 10 - - S 994,0 50 0 0,0
19.01.2018 05:00:00 0,3 -0,6 - - 24 13 - - S 994,3 1,5 0 0,0
19.01.2018 04:00:00 0,9 -1,3 - - 22 12 - - SSW 994,1 50 0 0,0
19.01.2018 03:00:00 0,6 -1,7 - - 22 12 - - S 994,1 50 0 0,0
19.01.2018 02:00:00 0,6 -0,7 - - 21 11 - - S 994,3 9 0 0,0
19.01.2018 01:00:00 0,7 -0,4 - - 15 8 - - S 994,7 7 0 0,0
19.01.2018 00:00:00 2,0 -1,1 - - 18 10 - - S 994,2 50 - 0,0
18.01.2018 23:00:00 1,9 -1,0 - - 15 8 - - SSW 994,5 50 0 0,0
18.01.2018 22:00:00 0,9 -0,1 - - 15 8 - - S 994,5 45 0 0,0
18.01.2018 21:00:00 1,1 -0,5 - - 15 8 - - S 994,6 1,2 0 0,0
18.01.2018 20:00:00 1,3 -1,7 - - 9 5 - - SSW 994,5 45 0 0,0
18.01.2018 19:00:00 1,7 -1,4 - - 13 7 - - SW 994,0 50 0 0,0
18.01.2018 18:00:00 1,1 -1,3 - - 11 6 - - SW 994,0 50 0 0,0
18.01.2018 17:00:00 -0,5 -2,9 - - 5 3 - - NNW 993,9 50 0 0,0
18.01.2018 16:00:00 0,3 -2,0 - - 8 4 - - W 993,0 50 12 0,0
18.01.2018 15:00:00 2,0 -0,7 - - 5 3 - - WNW 992,9 50 6 0,0
18.01.2018 14:00:00 2,0 -0,9 - - 16 9 - - SW 992,5 9 54 0,0
18.01.2018 13:00:00 1,7 -0,8 - - 15 8 - - WSW 992,2 45 48 0,0
18.01.2018 12:00:00 2,2 -0,3 - - 9 5 - - SSW 992,0 40 36 0,0
18.01.2018 11:00:00 1,2 0,5 - - 9 5 - - S 991,7 50 0 0,0
18.01.2018 10:00:00 0,6 0,0 - - 9 5 - - W 991,3 5 0 0,0
18.01.2018 09:00:00 0,5 0,1 - - 9 5 - - SW 990,7 6 0 0,0
18.01.2018 08:00:00 -3,8 -4,6 - - 4 2 - - SE 990,2 50 0 0,0
18.01.2018 07:00:00 0,0 -0,3 - - 2 1 - - W 989,5 50 0 0,0
18.01.2018 06:00:00 0,2 -0,1 - - 11 6 - - WSW 989,4 1,0 0 0,0
18.01.2018 05:00:00 -0,4 -1,1 - - 4 2 - - W 988,5 40 0 0,0
18.01.2018 04:00:00 1,0 0,2 - - 11 6 - - WSW 988,5 45 0 0,0
18.01.2018 03:00:00 1,3 -0,5 - - 8 4 - - WSW 988,2 6 0 0,0
18.01.2018 02:00:00 1,7 -0,3 - - 11 6 - - SSW 987,9 18 0 0,0
18.01.2018 01:00:00 0,8 -1,8 - - 11 6 - - S 987,7 35 0 0,0
18.01.2018 00:00:00 -0,5 -2,4 - - 5 3 - - SE 988,1 50 - 0,0
17.01.2018 23:00:00 1,2 -0,7 - - 16 9 - - S 988,4 50 0 0,0
17.01.2018 22:00:00 0,6 -1,0 - - 13 7 - - S 988,7 50 0 0,0
17.01.2018 21:00:00 1,2 -0,1 - - 11 6 - - S 989,2 50 0 0,0
17.01.2018 20:00:00 0,7 -0,1 - - 9 5 - - S 989,7 50 0 0,2
17.01.2018 19:00:00 0,4 -0,3 - - 2 1 - - SW 990,3 4,3 0 0,4
17.01.2018 18:00:00 1,5 -0,2 - - 11 6 - - WSW 990,7 26 0 0,2
17.01.2018 17:00:00 1,3 -0,1 - - 21 11 - - W 990,7 50 0 0,6
17.01.2018 16:00:00 0,4 0,0 - - 18 10 - - W 990,8 10 0 0,8
17.01.2018 15:00:00 1,5 -0,1 - - 13 7 63 34 W 989,8 8 18 1,0
17.01.2018 14:00:00 1,1 -0,2 - - 39 21 57 31 W 989,8 1,5 0 1,0
17.01.2018 13:00:00 1,2 0,1 - - 13 7 52 28 WSW 989,2 40 6 0,8
17.01.2018 12:00:00 3,1 -1,0 - - 28 15 52 28 WSW 988,2 29 6 0,2
17.01.2018 11:00:00 2,8 -0,9 - - 31 17 55 30 WSW 987,6 35 0 6,6
17.01.2018 10:00:00 3,0 -1,0 - - 31 17 - - WSW 987,0 35 0 0,0
17.01.2018 09:00:00 2,3 0,0 - - 26 14 54 29 WSW 986,4 7 0 0,0
17.01.2018 08:00:00 1,8 -0,2 - - 35 19 57 31 W 985,6 12 0 0,0
17.01.2018 07:00:00 2,1 -1,8 - - 31 17 55 30 WSW 984,7 35 0 0,0
17.01.2018 06:00:00 2,1 -1,8 - - 37 20 57 31 W 983,7 11 0 0,0
17.01.2018 05:00:00 1,2 -0,3 - - 29 16 48 26 W 982,5 35 0 0,0
17.01.2018 04:00:00 0,6 -0,6 - - 37 20 61 33 W 981,5 3,2 0 0,0
17.01.2018 03:00:00 1,7 -0,8 - - 24 13 50 27 WSW 979,8 14 0 0,0
17.01.2018 02:00:00 0,7 -0,8 - - 16 9 - - S 979,5 14 0 0,0
17.01.2018 01:00:00 0,0 -1,7 - - 11 6 - - S 978,5 40 0 0,0
17.01.2018 00:00:00 -1,6 -2,5 - - 15 8 - - S 978,4 50 - 0,0
16.01.2018 23:00:00 -0,9 -2,4 - - 18 10 - - S 977,7 50 0 0,0
16.01.2018 22:00:00 -1,0 -1,6 - - 21 11 - - S 976,8 1,3 0 0,0
16.01.2018 21:00:00 -1,4 -2,9 - - 15 8 - - S 976,3 10 0 0,0
16.01.2018 20:00:00 -1,5 -4,3 - - 11 6 - - S 975,7 50 0 0,0
16.01.2018 19:00:00 -0,4 -1,8 - - 11 6 - - SSW 975,6 8 0 0,0
16.01.2018 18:00:00 -0,6 -2,5 - - 16 9 - - S 974,9 50 0 0,0
16.01.2018 17:00:00 -1,2 -2,6 - - 11 6 54 29 SW 975,2 50 0 0,0
16.01.2018 16:00:00 0,2 -1,9 - - 16 9 - - SSW 974,5 6 0 0,0
16.01.2018 15:00:00 -0,4 -2,6 - - 15 8 - - S 974,4 50 0 0,0
16.01.2018 14:00:00 0,6 -2,4 - - 15 8 - - SW 974,6 50 18 0,0
16.01.2018 13:00:00 0,4 -2,4 - - 35 19 50 27 WSW 974,7 3,2 0 0,0
16.01.2018 12:00:00 0,7 -2,0 - - 13 7 48 26 SSW 974,5 35 0 0,0
16.01.2018 11:00:00 1,0 -2,3 - - 21 11 - - SW 974,9 45 0 0,0
16.01.2018 10:00:00 0,4 -1,8 - - 16 9 - - SW 974,8 40 0 0,0
16.01.2018 09:00:00 1,1 -2,1 2,5 4,2 13 7 - - SSW 974,7 23 0 0,0
16.01.2018 08:00:00 0,1 -3,4 - - 18 10 - - S 974,8 45 0 0,0
16.01.2018 07:00:00 1,4 -2,2 - - 18 10 - - SSW 974,3 50 0 0,0
16.01.2018 06:00:00 0,2 -2,6 - - 15 8 48 26 S 974,6 50 0 0,0
16.01.2018 05:00:00 1,2 -2,5 - - 15 8 - - SW 974,9 35 0 0,0
16.01.2018 04:00:00 0,7 -2,2 - - 15 8 48 26 SW 975,2 50 0 0,0
16.01.2018 03:00:00 1,1 -2,1 - - 21 11 - - SW 975,5 45 0 0,0
16.01.2018 02:00:00 1,1 -2,4 - - 15 8 - - SSW 975,7 50 0 0,0
16.01.2018 01:00:00 0,0 -1,1 - - 18 10 48 26 SSW 976,3 1,5 0 0,0
16.01.2018 00:00:00 1,6 -1,0 - - 13 7 - - SSW 976,2 12 - 0,0
15.01.2018 23:00:00 0,5 -1,8 - - 18 10 - - S 976,0 50 0 0,0
15.01.2018 22:00:00 0,7 -1,1 - - 15 8 48 26 SW 976,7 4,8 0 0,0
15.01.2018 21:00:00 0,6 -0,4 - - 21 11 - - SSW 976,5 2,8 0 0,2
15.01.2018 20:00:00 1,1 -0,3 - - 15 8 - - S 976,4 50 0 0,0
15.01.2018 19:00:00 1,4 0,0 - - 13 7 - - SSW 977,1 7 0 0,0
15.01.2018 18:00:00 1,6 0,1 - - 15 8 - - S 977,6 50 0 0,6
15.01.2018 17:00:00 1,2 -0,2 - - 16 9 - - W 978,4 2,0 0 0,2
15.01.2018 16:00:00 2,2 0,1 - - 13 7 - - S 978,5 40 0 0,0
15.01.2018 15:00:00 2,6 0,8 - - 15 8 - - SSW 979,2 40 0 0,2
15.01.2018 14:00:00 2,7 0,8 - - 15 8 - - SSW 979,7 14 6 0,0
15.01.2018 13:00:00 2,9 1,3 - - 15 8 - - S 980,1 11 0 0,0
15.01.2018 12:00:00 3,1 1,9 - - 11 6 - - S 980,5 40 0 0,8
15.01.2018 11:00:00 2,0 0,9 - - 11 6 - - S 981,4 30 0 1,2
15.01.2018 10:00:00 3,5 1,7 - - 13 7 - - SW 982,0 40 0 0,8
15.01.2018 09:00:00 3,3 1,9 2,5 4,2 15 8 - - SSW 983,3 3,1 0 1,2
15.01.2018 08:00:00 3,3 2,1 - - 11 6 - - SSW 983,4 24 0 0,6
15.01.2018 07:00:00 4,5 1,1 - - 18 10 - - SW 983,1 9 0 0,0
15.01.2018 06:00:00 5,0 1,9 - - 15 8 - - SSW 983,4 23 0 0,0
15.01.2018 05:00:00 4,8 2,3 - - 8 4 - - S 983,9 45 0 0,0
15.01.2018 04:00:00 4,6 2,6 - - 8 4 - - SSW 984,2 28 0 0,2
15.01.2018 03:00:00 4,5 2,9 - - 21 11 - - WSW 985,2 5 0 0,2
15.01.2018 02:00:00 5,3 3,8 - - 9 5 50 27 SSW 984,9 50 0 -
15.01.2018 01:00:00 6,5 5,1 - - 11 6 - - SSW 984,6 35 0 0,2
15.01.2018 00:00:00 6,5 5,3 - - 13 7 - - SSW 984,6 50 - 1,2
14.01.2018 23:00:00 6,7 5,5 - - 24 13 48 26 S 984,9 8 0 1,6
14.01.2018 22:00:00 5,5 4,2 - - 35 19 52 28 SSE 985,5 13 0 1,6
14.01.2018 21:00:00 5,3 4,4 - - 39 21 59 32 SSE 986,6 9 0 1,8
14.01.2018 20:00:00 5,2 4,1 - - 42 23 70 38 SSE 987,3 9 0 0,8
14.01.2018 19:00:00 5,8 3,0 - - 48 26 74 40 SSE 988,1 20 0 0,0
14.01.2018 18:00:00 4,9 3,1 - - 46 25 74 40 SSE 989,2 5 0 1,0
14.01.2018 17:00:00 4,8 3,0 - - 42 23 72 39 SSE 990,9 8 0 2,4
14.01.2018 16:00:00 6,1 2,7 - - 26 14 59 32 SSE 993,2 18 0 0,0
14.01.2018 15:00:00 7,0 2,3 - - 41 22 65 35 SE 995,1 45 0 0,0
14.01.2018 14:00:00 7,0 2,2 - - 31 17 61 33 SE 997,1 50 0 0,0
14.01.2018 13:00:00 7,1 2,1 - - 34 18 63 34 SSE 998,8 50 0 0,0
14.01.2018 12:00:00 6,9 1,9 - - 31 17 70 38 SE 1000,3 50 0 0,0
14.01.2018 11:00:00 6,9 1,4 - - 35 19 57 31 SSE 1002,1 50 0 0,0
14.01.2018 10:00:00 6,5 1,3 - - 34 18 57 31 SSE 1003,3 50 0 0,0
14.01.2018 09:00:00 6,8 1,7 1,9 4,2 35 19 59 32 SSE 1004,6 50 0 0,0
14.01.2018 08:00:00 6,9 2,7 - - 35 19 59 32 SSE 1005,1 50 0 0,0
14.01.2018 07:00:00 6,1 2,4 - - 28 15 50 27 SE 1006,2 50 0 0,0
14.01.2018 06:00:00 6,5 2,6 - - 34 18 54 29 SSE 1007,1 50 0 0,0
14.01.2018 05:00:00 6,3 2,9 - - 31 17 50 27 SSE 1008,2 50 0 0,0
14.01.2018 04:00:00 6,8 2,3 - - 21 11 - - SE 1008,7 50 0 0,0
14.01.2018 03:00:00 6,1 2,1 - - 21 11 48 26 ESE 1009,5 50 0 0,0
14.01.2018 02:00:00 6,9 2,3 - - 22 12 - - SE 1010,0 50 0 0,0
14.01.2018 01:00:00 6,7 2,3 - - 16 9 - - S 1010,8 50 0 0,0
14.01.2018 00:00:00 5,9 1,8 - - 24 13 - - SE 1011,1 50 - 0,0
13.01.2018 23:00:00 6,1 2,0 - - 21 11 52 28 SE 1011,6 50 0 0,0

tt = Température de l'air
td = dewpoint
tt -20cm = Température de l'air -20cm
tt -100cm = Température de l'air -100cm
ff = Vitesse du vent
fx = gusts
dd = Direction du vent
ppp = reduced air pressure
vv = visibility
sd = Ensoleillement
rr = Quantités de précipitations

stations d'obs. à proximité